Regional Weather Roundup
Issued by NWS

Home | Current Version | Previous Version | Text Only | Print | Product List | Glossary Off
Versions: 1 2 3 4 5 6 7 8 9 10 11 12 13 14 15 16 17 18 19 20 21 22 23 24 25 26 27 28 29 30 31 32 33 34 35 36 37 38 39 40 41 42 43 44 45 46 47 48 49 50

048
ASUS43 KFSD 261210
RWRSD

WEATHER ROUNDUP FOR SOUTH DAKOTA
NATIONAL WEATHER SERVICE SIOUX FALLS SD
700 AM CDT MON SEP 26 2016

NOTE: "FAIR" INDICATES FEW OR NO CLOUDS BELOW 12,000 FEET WITH NO
SIGNIFICANT WEATHER AND/OR OBSTRUCTIONS TO VISIBILITY.


SDZ001>005-009-010-012>017-261300-
NORTHWEST AND NORTH CENTRAL SOUTH DAKOTA

CITY           SKY/WX    TMP DP  RH WIND       PRES   REMARKS
BUFFALO          N/A     43  37  79 W10       30.17F
FAITH            N/A     45  39  79 W9        30.22S
MOBRIDGE       CLEAR     45  38  76 W10       30.17R
$$

SDZ012>016-024>037-041>051-057-063-072>074-261300-
SOUTHWEST AND SOUTH CENTRAL SOUTH DAKOTA

CITY           SKY/WX    TMP DP  RH WIND       PRES   REMARKS
RAPID CTY ARPT CLEAR     45  33  63 SW3       30.27S
PIERRE         CLEAR     43  35  73 W9        30.20S
CUSTER         CLEAR     40  30  67 NW3       30.34F
ELLSWORTH AFB  CLEAR     46  35  65 NW1       30.26S
PHILIP         CLEAR     42  34  73 W12       30.24F
PINE RIDGE     CLEAR     33  29  85 CALM      30.30F
WINNER         FAIR      48  35  60 W3        30.24S
$$

SDZ004>011-016>023-039-040-261300-
NORTHEAST SOUTH DAKOTA

CITY           SKY/WX    TMP DP  RH WIND       PRES   REMARKS
ABERDEEN       CLEAR     43  35  73 W7        30.14R
WATERTOWN      CLEAR     48  36  63 W13       30.10S
BROOKINGS      CLEAR     43  36  76 W12       30.12S
SISSETON         N/A     50  35  56 NW15      30.05R
$$

SDZ017-020-022-023-036>040-048>070-261300-
SOUTHEAST SOUTH DAKOTA

CITY           SKY/WX    TMP DP  RH WIND       PRES   REMARKS
SIOUX FALLS    PTCLDY    43  36  76 W6        30.15S
HURON          CLEAR     40  35  83 W7        30.16S
CHAMBERLAIN    CLEAR     47  38  68 W12       30.22S
MITCHELL       CLEAR     44  37  76 W9        30.19R
YANKTON        CLEAR     46  36  66 W12       30.19S
$$

ABBREVIATIONS USED IN REMARKS
   TC - TEMPERATURE IN CELSIUS
  WCI - WIND CHILL INDEX
   HX - HEAT INDEX
  VSB - VISIBILITY





USA.gov is the U.S. government's official web portal to all federal, state and local government web resources and services.